Weather History for Nassau, Bahamas

Change the Weather History Date:

Monday, October 31, 2011

  Actual Average Record
Temperature  
Mean Temperature 82 °F -  
Max Temperature 87 °F 82 °F 91 °F (2011)
Min Temperature 76 °F 68 °F 60 °F (1998)
Cooling Degree Days 16    
Growing Degree Days 32 (Base 50)    
Moisture  
Dew Point 77 °F    
Average Humidity 85    
Maximum Humidity 100    
Minimum Humidity 55    
Precipitation  
Precipitation 0.39 in 0.07 in - ()
Sea Level Pressure  
Sea Level Pressure 29.97 in    
Wind  
Wind Speed 5 mph ()    
Max Wind Speed 10 mph    
Max Gust Speed -    
Visibility 6.5 miles    
Events Rain , Thunderstorm    
Averages and records for this station are not official NWS values.
T = Trace of Precipitation, MM = Missing Value Source: Averaged Metar Reports

Daily Weather History Graph

Daily Weather History Graph

Search for Another Location

Airport:

Trip Planner

Search our weather history database for the weather conditions in past years. The results will help you decide how hot, cold, wet, or windy it might be!

Date:

Astronomy

Oct. 31, 2011 Rise Set
Actual Time 7:16 AM EDT 6:30 PM EDT
Civil Twilight 6:53 AM EDT 6:53 PM EDT
Nautical Twilight 6:25 AM EDT 7:20 PM EDT
Astronomical Twilight 5:59 AM EDT 7:47 PM EDT
Moon 12:09 PM EDT (10/31) 11:14 PM EDT (10/31)
Length of Visible Light 12h 00m
Length of Day
11h 13m
Waxing Crescent, 29% of the Moon is Illuminated
Oct 31
Waxing Crescent
Nov 2
First Quarter
Nov 10
Full
Nov 18
Last Quarter
Nov 25
New

Hourly Weather History & Observations

Time (EDT) Temp. Heat Index Dew Point Humidity Pressure Visibility Wind Dir Wind Speed Gust Speed Precip Events Conditions
12:00 AM 82.4 °F 89.5 °F 75.2 °F 79% 30.01 in 6.2 mi East 6.9 mph - N/A   Mostly Cloudy
1:00 AM 82.4 °F 89.5 °F 75.2 °F 79% 30.01 in 6.2 mi ESE 6.9 mph - N/A   Mostly Cloudy
2:00 AM 80 °F - 76 °F 85% 30.00 in 9 mi East 6.9 mph - -   Scattered Clouds
2:00 AM 80.6 °F 87.1 °F 77.0 °F 89% 29.99 in 6.2 mi East 6.9 mph - N/A   Mostly Cloudy
4:00 AM 82.4 °F 90.9 °F 77.0 °F 84% 29.96 in 6.2 mi East 5.8 mph - N/A Rain Rain Showers
5:00 AM - - - % 30.32 in 9 mi ESE 8.1 mph - -  
6:00 AM 82.4 °F 90.9 °F 77.0 °F 84% 29.96 in 6.2 mi ESE 4.6 mph - N/A   Mostly Cloudy
7:00 AM 82.4 °F 92.4 °F 78.8 °F 89% 29.96 in 6.2 mi ESE 5.8 mph - N/A   Mostly Cloudy
8:00 AM 80.6 °F 86.2 °F 75.2 °F 84% 29.97 in 6.2 mi ESE 5.8 mph - N/A   Scattered Clouds
9:00 AM 86.0 °F 99.3 °F 78.8 °F 79% 29.98 in 6.2 mi ESE 9.2 mph - N/A   Mostly Cloudy
11:00 AM 82 °F - 80 °F 91% 29.99 in 8 mi SE 5.8 mph - - Rain Light Rain Showers
11:00 AM 82.4 °F 94.0 °F 80.6 °F 94% 29.99 in 6.2 mi SE 5.8 mph - N/A   Mostly Cloudy
12:00 PM 89.6 °F 98.2 °F 73.4 °F 59% 29.98 in 6.2 mi SE 6.9 mph - N/A   Mostly Cloudy
1:00 PM 91.4 °F 100.1 °F 73.4 °F 55% 29.96 in 6.2 mi SSE 10.4 mph - N/A   Mostly Cloudy
2:00 PM 86 °F - 77 °F 69% 29.93 in 9 mi SSE 6.9 mph - -   Partly Cloudy
2:00 PM 86.0 °F 96.9 °F 77.0 °F 74% 29.92 in 6.2 mi SSE 10.4 mph - N/A   Mostly Cloudy
3:00 PM 87.8 °F 102.5 °F 78.8 °F 75% 29.90 in 6.2 mi SSE 10.4 mph - N/A   Mostly Cloudy
4:00 PM 84.2 °F 98.3 °F 80.6 °F 89% 29.91 in 6.2 mi South 4.6 mph - N/A Rain Light Rain Showers
5:00 PM 81 °F - 79 °F 91%  in 2 mi SW 8.1 mph - - Rain Heavy Rain Showers
5:00 PM 80.6 °F 88.1 °F 78.8 °F 94% 29.92 in - SW 9.2 mph - N/A Rain Heavy Rain Showers
5:11 PM 78.8 °F - 78.8 °F 100% 29.92 in 6.2 mi SW 3.5 mph - N/A Rain , Thunderstorm Light Thunderstorms and Rain
6:00 PM 78.8 °F - 78.8 °F 100% 29.91 in 6.2 mi Calm Calm - N/A   Mostly Cloudy
7:00 PM 78.8 °F - 77.0 °F 94% 29.92 in 6.2 mi Calm Calm - N/A   Mostly Cloudy
8:00 PM 78 °F - 73 °F 80% 29.93 in 8 mi Calm Calm - -   Partly Cloudy
8:00 PM 77.0 °F - 73.4 °F 89% 29.93 in 6.2 mi Calm Calm - N/A   Mostly Cloudy
9:00 PM 78.8 °F - 77.0 °F 94% 29.95 in 6.2 mi Calm Calm - N/A   Mostly Cloudy
10:00 PM 78.8 °F - 78.8 °F 100% 29.96 in 6.2 mi Calm Calm - N/A   Mostly Cloudy
11:00 PM 76 °F - 75 °F 94% 29.98 in 8 mi Calm Calm - -   Partly Cloudy
11:00 PM 77.0 °F - 75.2 °F 94% 29.98 in 6.2 mi Calm Calm - N/A   Scattered Clouds